This is the latest recevied weather packets stored in our database for station/object LU8FCJ-5. If no packets are shown the sender has not sent any weather packets the latest 10 day(s).
| Time | Temp. | Humidity | Pressure | Rain* | Wind** | Luminosity | Snow |
|---|---|---|---|---|---|---|---|
| 1778123656 | 20° C | 82% | 1003 hPa | 0 mm | - | - | - |
| 1778123339 | 20.56° C | 82% | 1002.7 hPa | 0 mm | - | - | - |
| 1778123030 | 20.56° C | 82% | 1002.5 hPa | 0 mm | - | - | - |
| 1778122719 | 20.56° C | 81% | 1001.8 hPa | 0 mm | - | - | - |
| 1778122409 | 20.56° C | 82% | 1001.7 hPa | 0 mm | - | - | - |
| 1778122100 | 21.11° C | 84% | 1000.8 hPa | 0 mm | - | - | - |
| 1778121789 | 21.67° C | 83% | 1000.9 hPa | 0 mm | - | - | - |
| 1778121479 | 21.67° C | 86% | 1002 hPa | 0 mm | - | - | - |
| 1778121169 | 21.67° C | 87% | 1001.9 hPa | 0 mm | - | - | - |
| 1778106494 | 24.44° C | 81% | 1001.1 hPa | 0 mm | - | - | - |
| 1778106183 | 24.44° C | 82% | 1001 hPa | 0 mm | - | - | - |
| 1778105873 | 24.44° C | 82% | 1000.9 hPa | 0 mm | - | - | - |
| 1778105562 | 24.44° C | 81% | 1000.9 hPa | 0 mm | - | - | - |
| 1778105253 | 24.44° C | 81% | 1000.9 hPa | 0 mm | - | - | - |
| 1778104943 | 24.44° C | 81% | 1000.8 hPa | 0 mm | - | - | - |
| 1778104631 | 25° C | 80% | 1000.8 hPa | 0 mm | - | - | - |
| 1778104322 | 25° C | 80% | 1000.7 hPa | 0 mm | - | - | - |
| 1778104012 | 25.56° C | 79% | 1000.8 hPa | 0 mm | - | - | - |
| 1778103702 | 25.56° C | 78% | 1000.7 hPa | 0 mm | - | - | - |
| 1778103084 | 26.11° C | 78% | 1000.7 hPa | 0 mm | - | - | - |
| 1778102772 | 26.11° C | 78% | 1000.6 hPa | 0 mm | - | - | - |
| 1778102461 | 26.11° C | 77% | 1000.8 hPa | 0 mm | - | - | - |
| 1778102151 | 26.11° C | 76% | 1000.9 hPa | 0 mm | - | - | - |
| 1778101840 | 26.67° C | 76% | 1000.6 hPa | 0 mm | - | - | - |
| 1778101531 | 26.67° C | 75% | 1000.8 hPa | 0 mm | - | - | - |
* Rain latest hour (hover to see other rain measurements)
** Current wind speed in m/s (hover to see current wind gust speed)